GFSFLT1_925_spd_000.txt.gz
Wind_Speed
23 24 17 22 25 24 20 19 16 16 15 16 14 14 13 9 8 6 6 6 7 10 17 16 11 10 11 12 14 18 20 23
31 32 29 27 22 17 15 19 15 16 19 18 14 11 7 6 7 6 8 11 16 18 15 9 8 9 11 13 14 16 18 23
22 32 33 30 28 26 21 18 18 15 14 10 5 3 5 5 5 6 12 14 11 10 10 12 12 13 15 17 18 19 16 17
14 22 26 25 23 19 18 17 15 14 10 5 3 1 2 7 11 12 10 6 7 10 13 15 16 16 16 17 18 19 16 15
14 18 20 18 16 15 14 11 8 5 5 6 4 2 4 6 3 5 2 6 10 14 14 15 14 13 15 15 17 16 17 13
8 16 17 13 11 10 6 5 4 5 4 5 3 3 4 3 4 1 5 9 12 15 17 16 14 15 16 15 15 15 14 11
11 12 11 10 7 4 3 0 2 5 6 6 6 5 5 4 2 6 12 12 11 11 11 11 12 14 15 14 14 16 19 19
7 8 7 5 1 2 3 4 7 6 8 7 6 2 8 8 12 19 17 16 8 7 7 10 11 11 13 15 19 22 22 21
6 6 6 12 18 21 14 11 12 9 8 13 13 9 8 11 17 20 16 7 3 4 5 6 9 12 13 14 15 14 16 18
9 10 25 26 27 23 18 14 12 9 7 6 9 14 16 19 21 13 10 8 3 3 6 10 12 15 14 13 13 14 14 16
9 18 21 21 18 15 13 10 10 9 12 14 13 10 14 14 16 12 10 6 2 5 10 12 10 11 13 12 13 13 15 15
8 15 15 15 15 13 14 13 10 15 19 20 21 21 19 15 8 6 4 3 6 6 9 7 8 9 9 10 11 9 9 6
9 12 11 10 14 17 20 20 21 24 23 22 23 22 21 16 10 9 11 10 3 7 8 9 10 9 9 10 13 8 6 6
6 8 11 14 16 17 18 21 23 25 27 28 27 27 27 26 15 8 3 2 12 21 8 8 11 13 15 13 7 4 5 8
5 8 9 10 12 16 16 17 20 24 27 28 29 29 26 17 4 4 8 9 13 20 7 11 15 14 14 11 8 6 9 16
5 3 4 7 11 12 13 15 18 19 21 23 21 23 20 14 16 18 15 16 11 8 9 14 14 15 13 9 6 12 18 18
3 3 5 7 8 7 10 12 13 14 18 17 21 21 19 14 14 14 14 15 8 7 16 14 12 10 10 9 16 16 16 17
3 4 3 7 4 5 8 9 10 10 11 13 19 20 18 18 17 14 18 12 14 16 11 5 7 6 11 14 15 14 15 14
1 2 3 3 1 5 7 6 7 11 11 16 18 18 20 19 11 13 11 14 17 8 2 3 7 9 11 11 11 14 14 14

GFSFLT1_925_spd_003.txt.gz
Wind_Speed
14 13 9 14 13 13 19 13 14 15 9 15 19 18 14 10 8 7 4 5 7 11 13 12 12 11 14 16 17 17 18 21
22 23 18 17 16 15 12 11 15 16 17 15 13 11 9 7 6 8 10 12 11 11 11 11 12 13 15 17 19 21 22 25
16 28 28 24 25 23 18 17 16 15 11 10 6 2 2 4 7 9 10 10 11 12 11 11 12 14 16 18 20 20 19 21
6 17 22 21 19 17 16 14 12 10 8 6 1 1 1 4 6 5 8 9 9 10 12 13 12 10 12 14 15 14 14 15
8 15 17 18 16 13 11 9 8 8 7 6 6 5 6 5 4 6 8 9 10 12 14 11 8 9 12 15 13 12 11 14
7 16 17 13 11 9 7 5 3 3 5 8 7 4 3 2 5 10 16 13 12 12 14 11 9 7 11 12 9 9 10 11
10 14 10 9 6 4 4 4 6 5 5 6 6 5 1 7 9 16 22 20 24 20 15 5 3 9 10 8 8 11 12 10
6 11 13 13 11 6 5 4 7 5 3 3 2 7 8 2 10 22 27 28 26 18 10 3 6 8 6 7 8 8 9 8
8 15 18 17 17 15 13 13 12 12 11 10 7 10 13 16 18 21 22 23 20 13 7 3 8 3 7 7 6 7 7 9
10 19 18 15 14 14 13 12 11 10 11 12 13 15 17 17 21 24 19 14 9 7 4 6 7 10 6 7 7 8 9 10
8 13 12 13 13 13 13 13 15 14 14 14 16 18 18 22 25 24 16 11 9 7 9 14 7 10 11 9 10 11 12 15
7 10 11 12 15 17 17 14 12 13 15 17 18 19 22 24 25 23 17 12 6 3 5 7 12 10 9 11 12 16 16 12
8 9 11 15 14 15 14 12 12 13 15 18 20 22 25 26 26 16 6 3 1 1 6 13 11 9 12 13 15 14 9 10
5 7 12 13 10 10 9 9 10 13 17 20 22 23 25 27 24 13 9 7 14 24 25 15 10 11 12 14 14 11 10 10
4 6 12 10 9 7 5 5 10 14 16 19 21 22 22 21 18 13 15 22 20 13 14 12 11 12 12 14 14 12 12 18
5 5 9 7 7 3 1 5 8 11 14 16 18 18 20 19 19 19 20 14 14 13 17 12 13 12 15 13 11 13 18 20
4 4 10 8 8 5 5 6 7 8 10 14 16 19 21 20 17 18 17 18 18 6 11 16 12 10 7 8 14 17 19 19
5 9 13 13 14 11 9 8 8 9 11 13 17 18 20 19 18 15 12 12 9 12 17 7 3 5 9 12 14 16 19 19
8 16 14 15 14 10 9 11 11 10 13 14 16 20 22 20 15 12 15 14 12 19 6 2 4 8 11 12 13 15 15 16

GFSFLT1_925_spd_009.txt.gz
Wind_Speed
7 8 8 10 13 18 20 19 16 12 6 6 13 14 11 7 3 4 3 4 5 5 6 5 6 7 7 8 8 8 6 10
8 10 14 19 18 18 16 15 12 11 16 20 16 11 6 4 4 2 3 3 4 6 7 9 11 12 13 12 10 9 9 12
10 12 16 18 18 17 17 17 19 20 21 17 7 7 6 5 4 2 3 5 7 9 12 16 15 12 10 8 7 7 7 8
12 15 14 13 17 20 21 22 19 14 10 8 8 7 7 4 2 3 8 13 15 15 15 16 13 12 6 4 5 7 10 8
13 14 14 18 19 19 18 16 11 9 6 4 4 3 3 2 3 5 11 13 14 15 16 16 12 7 1 3 6 8 8 9
13 18 18 15 18 15 15 14 11 10 10 10 10 9 7 5 3 5 10 16 19 18 16 17 12 4 0 2 4 6 6 6
7 8 11 14 17 16 17 19 20 20 20 20 18 15 10 7 9 13 14 20 22 21 19 15 9 4 1 2 4 4 1 2
5 7 8 11 16 19 21 21 21 18 16 14 13 11 9 10 12 14 18 19 20 19 20 12 7 4 4 4 3 5 3 3
6 8 11 14 17 19 19 18 18 16 15 14 12 11 11 12 15 17 19 20 20 22 14 11 7 3 3 6 8 6 5 6
9 10 10 12 15 17 18 19 18 15 13 11 11 11 12 14 18 22 23 24 22 16 9 10 5 4 9 7 9 9 8 9
10 10 11 11 14 16 16 16 15 13 10 10 10 11 14 18 21 23 23 22 19 10 10 9 8 13 7 10 9 9 11 11
10 11 11 13 14 14 15 12 9 8 7 7 9 11 14 16 20 22 22 20 17 10 12 10 10 12 12 10 10 11 12 12
13 13 14 13 13 13 11 7 4 3 3 5 6 8 11 15 18 20 20 18 14 10 9 10 16 17 14 11 12 11 12 12
11 13 13 12 11 9 7 1 4 3 3 5 7 8 11 14 18 19 18 16 14 12 16 19 16 14 11 11 13 12 10 9
11 11 12 12 10 9 5 9 9 6 7 8 9 9 13 15 18 19 18 17 15 14 15 17 16 12 8 11 10 7 8 9
10 10 14 14 15 13 11 12 10 9 10 11 11 12 14 16 21 21 19 16 11 12 12 8 6 7 6 4 5 7 11 14
11 14 17 16 15 13 13 12 10 9 13 14 14 15 16 17 21 21 18 14 11 12 10 8 5 5 5 7 8 9 12 13
12 14 16 18 17 14 13 10 9 11 14 16 16 17 18 17 21 19 15 13 12 10 10 7 5 4 5 9 13 9 11 13
11 15 14 13 12 11 10 8 9 13 15 14 16 19 18 17 20 17 14 14 12 10 8 6 3 1 6 11 15 10 11 12

GFSFLT1_925_spd_015.txt.gz
Wind_Speed
10 8 7 9 12 15 14 14 17 16 10 7 4 3 7 7 4 2 3 2 2 1 2 5 8 11 13 15 17 18 21 23
9 9 8 8 11 15 16 14 17 13 9 8 8 10 9 6 4 4 3 2 2 5 6 9 11 13 14 16 19 21 21 21
10 11 11 11 12 13 16 13 14 13 11 11 9 9 7 7 6 4 4 4 5 7 9 11 12 15 17 18 18 19 18 18
11 13 13 14 15 15 17 16 15 12 12 9 8 6 6 6 4 3 3 5 7 9 11 13 15 17 19 19 17 15 18 17
12 14 16 16 16 16 17 16 13 11 9 8 6 3 5 6 3 2 4 6 9 12 14 15 16 18 18 18 16 12 16 16
15 19 20 18 18 17 15 14 12 10 9 7 5 5 5 4 1 4 6 8 11 14 15 16 17 18 18 15 14 14 14 17
18 20 20 19 17 16 15 14 13 12 11 10 10 7 5 3 4 6 7 10 11 12 14 16 17 17 15 14 12 13 12 15
16 17 19 18 18 16 15 15 14 13 12 11 10 8 6 5 7 6 8 9 11 13 16 17 17 16 13 11 11 11 13 13
16 18 18 18 17 18 16 16 15 14 13 11 8 6 4 3 4 6 7 9 11 14 15 16 15 12 7 7 13 14 12 13
17 19 18 18 18 18 18 16 15 14 12 9 7 6 6 1 3 5 7 9 12 14 15 15 13 10 8 12 12 13 15 11
16 16 17 18 20 20 18 17 16 13 11 9 8 6 3 1 4 6 8 10 12 14 15 15 15 12 14 13 15 19 14 14
15 17 19 21 21 21 20 18 15 12 11 10 8 5 4 4 5 7 9 12 13 14 15 15 15 15 15 18 22 20 15 17
16 19 21 22 22 23 21 17 14 13 11 10 8 6 5 6 7 8 10 12 13 15 14 14 15 14 17 19 17 16 13 14
16 19 21 23 24 23 20 16 14 13 11 11 10 8 8 9 10 10 11 13 14 14 14 14 16 14 17 15 15 14 13 14
17 16 21 23 24 23 20 17 15 14 14 11 9 9 10 11 11 11 12 13 15 14 13 12 13 13 13 12 10 10 12 14
17 16 18 23 23 23 21 16 15 15 12 11 10 9 11 12 13 13 13 14 14 14 14 10 11 11 7 7 10 13 16 16
17 17 21 23 24 24 20 15 16 14 12 11 11 10 12 13 13 14 14 15 14 15 14 11 10 11 8 10 8 9 13 15
16 18 22 22 23 23 17 17 15 13 12 11 11 11 12 12 14 15 15 15 15 15 14 12 11 7 8 6 6 9 12 14
15 17 19 21 20 19 17 15 14 11 10 9 10 11 12 13 15 16 16 15 15 14 12 10 11 6 9 7 7 9 12 12

GFSFLT1_925_spd_018.txt.gz
Wind_Speed
13 13 15 16 26 27 25 18 22 14 13 12 6 5 7 9 8 7 6 7 6 2 6 7 7 10 12 14 16 16 16 18
13 8 8 6 23 28 25 22 23 17 13 13 9 11 12 11 9 9 7 7 5 6 4 7 10 9 13 14 15 15 16 17
14 12 11 9 15 23 20 18 15 17 15 13 14 16 10 13 10 8 8 6 5 4 6 7 9 11 14 14 16 18 14 14
12 14 15 14 21 21 18 18 19 18 16 15 13 15 12 11 8 11 5 4 4 5 8 8 11 11 13 15 16 16 10 12
13 15 16 18 19 15 22 23 17 18 15 14 13 11 14 11 12 8 4 4 5 7 10 11 11 12 14 15 14 15 13 13
14 15 21 22 20 20 20 18 15 14 8 13 10 14 12 11 9 8 6 7 8 8 9 12 13 15 16 15 15 13 11 11
13 18 20 19 19 19 19 18 16 14 13 14 17 14 12 13 8 3 3 5 7 8 10 13 13 14 15 13 10 8 9 11
14 15 18 19 19 18 18 19 18 16 16 16 16 14 11 8 5 4 2 2 6 8 12 12 13 13 13 10 8 9 12 13
14 17 19 20 20 20 20 21 20 18 18 17 15 12 7 9 6 3 1 3 6 10 10 12 14 13 10 12 13 10 14 12
14 18 20 21 20 21 21 22 21 20 19 16 11 11 12 9 6 3 1 3 6 9 11 13 14 16 11 11 10 11 12 15
13 16 19 21 20 21 20 21 23 22 19 15 14 13 12 8 6 4 2 4 8 10 12 13 14 15 14 11 13 13 18 16
13 16 20 20 20 21 20 21 22 21 17 16 15 14 12 9 6 4 3 5 8 10 12 13 14 14 15 13 16 18 18 15
14 17 18 17 19 20 20 19 21 18 17 16 17 15 12 9 6 5 6 7 9 11 13 14 15 14 12 11 14 15 16 12
14 16 17 19 21 20 20 20 18 17 16 17 17 16 12 9 7 7 7 9 9 11 14 16 9 13 15 14 17 13 8 9
13 14 17 20 20 20 21 20 16 17 14 17 19 17 10 6 6 9 10 10 8 12 14 17 10 9 10 10 7 8 10 12
10 11 12 20 19 21 22 20 18 15 16 18 12 8 6 7 8 8 10 11 12 15 14 16 11 9 9 6 7 11 9 10
6 5 10 16 19 21 21 19 19 15 19 12 7 3 3 4 10 12 13 15 15 13 12 16 13 9 11 9 8 6 7 11
4 4 8 13 18 21 20 20 15 17 14 11 8 4 5 10 9 13 15 15 14 12 13 13 10 8 10 10 7 6 7 10
4 4 9 14 15 17 21 19 16 16 12 7 2 6 5 8 11 14 15 15 13 13 14 13 9 8 8 10 7 6 6 10

GFSFLT1_925_spd_021.txt.gz
Wind_Speed
25 26 35 36 39 36 32 30 28 26 23 20 10 10 9 14 14 12 11 9 7 9 9 7 6 5 8 11 13 11 13 15
17 14 25 33 38 38 36 33 29 24 23 20 14 16 17 18 16 13 14 11 7 3 2 5 8 9 11 12 14 15 16 11
15 15 20 32 35 36 35 33 29 21 25 22 19 20 21 16 13 13 12 10 6 5 6 6 8 11 10 11 14 16 11 8
9 17 16 31 33 34 35 34 27 22 23 22 23 23 24 21 18 15 9 6 6 4 2 2 4 6 9 12 12 8 7 9
11 16 20 29 29 23 27 26 26 26 20 27 33 30 23 19 19 14 12 10 6 3 2 5 8 12 13 13 14 14 12 5
13 15 25 26 27 25 21 26 22 20 29 24 23 27 26 26 21 16 9 5 2 1 5 8 12 11 12 13 13 5 3 5
10 22 23 22 22 25 22 25 21 20 23 26 28 29 26 22 15 10 6 3 2 2 5 9 9 11 12 11 4 6 6 8
13 12 19 25 28 28 27 25 23 21 23 26 27 25 19 15 10 7 6 4 1 4 8 9 10 12 12 9 10 11 11 12
13 16 22 26 24 22 23 25 23 20 20 20 18 16 14 11 10 8 6 3 1 5 6 9 10 11 12 13 13 11 13 9
12 17 26 27 23 21 20 24 22 20 19 18 15 12 11 13 10 7 6 2 1 4 7 9 10 12 11 12 11 10 11 11
13 16 24 29 28 24 20 25 26 23 21 17 13 12 13 11 9 8 4 2 4 5 7 9 12 13 11 10 7 7 9 15
15 17 26 32 32 30 25 26 28 25 23 17 12 12 13 11 10 8 6 4 4 5 8 10 13 15 10 7 8 11 11 13
15 21 26 28 32 33 29 27 31 29 23 16 15 14 16 12 11 8 7 7 5 6 8 11 12 7 10 14 13 13 10 2
14 15 23 28 30 34 32 29 32 29 22 18 17 17 16 14 10 9 8 8 8 9 9 11 14 12 13 9 6 4 4 5
14 13 19 27 31 34 35 29 31 29 23 21 19 20 20 17 10 6 7 10 10 9 13 13 16 15 11 9 8 4 5 6
8 14 11 21 23 28 33 31 30 28 27 19 18 19 20 13 5 4 4 7 10 15 16 17 14 14 12 11 10 10 8 7
6 9 14 20 23 26 31 33 31 28 25 17 12 17 14 9 3 9 14 12 16 19 18 15 15 14 13 13 12 10 6 6
7 7 13 18 25 32 32 33 32 29 20 17 17 16 10 6 10 8 12 15 17 15 15 13 13 12 13 11 10 8 7 6
6 4 8 20 27 30 31 31 31 23 20 19 14 10 9 8 9 14 13 15 17 14 14 14 15 14 10 10 11 9 7 6

GFSFLT1_925_spd_024.txt.gz
Wind_Speed
30 31 35 38 43 37 32 32 33 30 26 22 18 15 16 17 17 16 15 13 13 11 9 6 3 1 5 9 11 10 11 11
31 35 34 33 37 40 38 36 34 32 31 25 20 19 20 16 16 15 13 12 12 8 4 1 2 7 9 10 9 11 12 8
21 29 31 34 40 37 37 38 39 36 30 26 20 19 19 19 19 16 14 11 8 5 4 4 5 6 6 6 9 8 4 7
13 26 29 31 32 38 40 39 38 32 27 25 20 21 24 23 22 17 13 9 6 4 3 2 0 3 5 6 6 5 4 1
12 18 25 32 37 39 37 38 35 30 28 31 30 30 26 26 24 19 14 9 7 7 5 1 2 5 6 7 8 7 2 2
15 20 29 29 35 37 37 35 32 27 32 30 33 33 29 25 21 19 15 12 9 6 2 2 6 6 7 8 6 3 3 2
7 19 24 26 31 32 31 32 28 28 25 27 36 34 28 27 24 20 15 12 7 3 3 7 8 7 9 7 3 5 7 7
13 12 18 22 26 29 30 26 21 24 26 28 31 30 31 30 25 19 16 12 7 4 6 6 6 7 7 5 6 8 8 8
13 15 20 25 30 32 32 32 24 23 27 25 29 28 27 22 17 14 11 9 5 3 3 6 7 8 8 7 9 10 6 5
13 15 20 26 29 33 35 33 28 25 26 26 23 20 17 15 13 10 10 6 3 2 4 6 8 10 10 10 9 10 10 10
12 18 23 27 33 32 31 31 31 28 26 24 21 17 14 13 11 9 7 4 2 3 4 7 9 11 9 12 7 8 9 11
16 19 27 32 35 35 35 34 33 31 28 26 22 19 17 14 12 11 8 5 5 7 5 6 9 10 11 6 7 11 12 12
17 23 26 27 32 35 40 39 37 36 33 29 25 21 18 17 15 14 12 10 8 9 6 7 9 10 10 10 10 10 12 7
13 13 21 27 30 33 37 40 39 37 34 30 26 23 23 22 18 18 16 13 11 10 9 9 9 10 13 15 13 11 6 5
12 11 17 25 28 28 25 29 37 38 36 32 29 25 25 23 21 19 16 13 12 11 10 13 13 13 16 16 15 11 8 7
7 8 8 17 19 21 23 33 37 39 38 33 30 26 24 24 18 15 10 7 4 9 14 17 17 16 16 19 17 14 12 8
9 9 11 15 20 25 27 33 36 37 37 34 28 26 25 21 17 9 6 5 8 14 18 21 19 19 17 19 17 15 12 10
4 8 13 17 23 31 33 36 35 35 32 27 24 23 26 19 14 9 7 6 12 16 18 17 16 15 16 18 17 14 13 12
5 2 12 21 27 31 29 28 30 29 26 22 27 27 21 16 14 10 3 11 15 16 15 15 17 16 16 18 16 15 14 13

GFSFLT1_925_spd_027.txt.gz
Wind_Speed
27 27 28 25 31 31 29 29 29 28 27 25 21 17 16 16 17 16 14 15 15 13 12 10 6 3 1 4 7 9 11 9
25 27 27 26 30 33 30 29 31 32 31 28 22 21 20 19 18 16 14 15 15 12 10 8 4 1 5 7 10 11 9 7
20 22 26 30 34 36 33 33 35 37 36 32 26 23 22 20 19 17 16 16 13 9 6 3 4 6 7 10 10 7 4 4
15 22 26 28 32 40 40 38 39 38 35 29 22 22 20 21 22 21 18 13 8 5 4 4 6 8 11 10 7 3 3 1
13 20 24 31 33 36 36 41 40 39 34 31 29 30 24 26 26 21 16 11 9 6 5 5 7 9 9 8 8 5 3 3
16 22 28 27 30 39 38 38 38 38 35 34 32 29 28 26 23 20 16 12 9 8 6 5 7 8 7 6 5 2 1 0
7 14 22 25 30 34 32 35 34 37 32 30 29 28 25 26 23 21 17 14 11 7 3 5 8 8 6 3 2 1 4 3
10 12 18 23 28 34 33 34 32 32 29 26 26 26 28 29 29 25 21 17 12 8 4 6 10 5 3 4 3 4 4 4
15 18 22 24 27 28 30 32 32 31 27 27 25 27 31 31 29 23 19 15 10 6 1 9 2 2 3 6 6 6 5 5
15 18 23 23 27 33 35 32 32 31 30 28 25 27 31 32 25 21 19 14 10 5 2 4 3 3 4 4 4 6 7 8
9 14 21 26 31 31 31 33 36 33 31 31 31 32 32 29 27 24 21 19 10 12 8 7 4 4 6 7 7 5 7 11
11 13 21 27 31 34 37 37 35 35 35 37 36 33 30 28 26 23 21 14 15 12 9 6 5 6 7 6 5 7 9 10
12 15 20 24 28 33 40 41 42 40 38 36 34 32 30 28 26 23 20 18 14 12 8 7 7 7 8 8 10 12 11 12
5 7 14 21 25 29 31 31 30 33 34 34 33 32 31 30 27 24 22 19 16 14 10 8 9 10 10 10 14 16 15 13
8 6 9 17 22 22 25 27 29 32 33 35 35 34 33 30 27 24 23 21 18 15 11 11 12 14 14 14 16 18 16 13
8 7 7 15 16 21 25 28 31 33 35 37 37 34 32 28 26 23 21 18 14 10 9 11 16 17 18 19 18 20 19 16
8 9 11 15 21 24 25 30 35 36 37 39 36 31 26 23 17 14 13 11 7 5 8 15 16 17 17 18 18 22 21 18
7 2 6 12 21 28 31 33 32 34 25 17 17 20 16 17 19 18 13 7 1 9 13 18 17 15 15 17 18 23 21 19
7 10 8 4 11 15 14 16 17 15 13 15 15 19 26 22 18 12 4 6 9 11 14 13 14 16 17 17 17 21 21 20

GFSFLT1_925_spd_030.txt.gz
Wind_Speed
21 26 30 29 28 26 26 24 23 24 22 22 24 21 18 15 14 13 14 17 18 16 14 13 9 6 4 2 3 5 5 4
17 23 26 28 27 28 28 28 26 26 24 26 26 23 18 17 15 15 16 17 16 15 13 10 7 4 4 2 3 5 6 5
14 21 26 31 32 32 31 31 31 32 31 30 27 25 22 19 18 16 15 17 16 14 11 8 7 5 4 3 4 6 4 4
12 18 28 32 35 38 38 38 36 35 36 34 25 24 20 20 20 19 19 18 15 11 10 8 7 4 2 4 6 6 5 4
10 17 23 29 29 33 37 41 37 35 36 35 32 30 24 21 25 23 21 17 15 12 10 8 5 4 5 8 9 8 6 3
13 17 23 25 33 35 34 30 31 34 35 36 33 29 26 23 26 24 21 18 15 13 11 6 4 6 7 9 8 7 4 2
11 19 20 25 26 31 28 25 34 35 36 34 35 31 25 26 27 26 23 20 18 14 10 7 5 9 5 6 4 2 0 2
11 12 18 23 28 30 31 38 30 36 36 39 32 26 28 30 33 31 28 25 21 17 11 4 3 5 5 3 2 4 4 4
14 15 22 24 27 29 26 33 30 34 36 35 30 29 29 31 37 35 33 29 24 18 12 4 2 6 2 3 4 6 7 6
14 13 22 23 28 31 33 32 32 36 34 32 32 30 32 36 39 36 32 26 23 19 8 6 3 4 3 4 5 8 9 9
7 9 17 21 27 28 32 34 36 34 33 34 33 32 34 37 35 35 30 25 23 17 10 9 8 5 3 7 9 10 12 11
6 7 16 22 26 32 34 33 33 31 31 32 32 34 33 32 35 33 30 27 24 13 14 13 9 7 5 7 10 11 12 11
6 7 11 18 25 29 30 28 28 28 29 31 33 31 30 30 35 33 31 28 18 17 16 14 11 10 8 9 10 12 14 14
7 6 10 16 17 18 22 23 26 26 28 29 30 31 32 34 33 32 29 24 22 21 19 15 12 10 9 12 13 14 16 17
6 6 6 10 13 18 20 22 25 27 27 29 32 35 35 34 32 29 27 24 23 21 18 14 10 10 12 15 17 19 20 20
5 4 4 9 12 14 16 20 21 22 24 29 33 30 29 27 25 25 24 23 20 17 14 11 8 12 18 21 23 24 24 22
2 2 4 7 14 18 21 24 25 24 26 27 25 24 25 22 21 21 21 20 17 12 7 4 14 19 20 21 20 22 22 24
8 8 8 3 6 13 18 17 18 21 22 17 16 16 16 16 17 19 19 17 11 6 0 12 20 18 20 18 18 21 23 25
8 9 12 14 10 7 3 3 8 11 10 11 12 14 16 19 21 17 12 7 8 7 11 11 14 21 20 21 21 21 22 25

GFSFLT1_925_spd_033.txt.gz
Wind_Speed
18 19 23 25 25 23 22 22 20 18 18 19 18 19 18 18 17 17 17 17 16 17 18 17 13 10 7 4 3 0 1 2
18 21 25 27 27 25 24 24 25 24 25 21 19 22 20 19 18 18 17 18 20 20 19 16 13 9 6 3 3 4 2 2
16 22 25 27 28 28 26 26 27 27 25 24 17 23 22 19 18 18 19 21 22 20 19 16 12 9 6 5 6 5 3 3
13 21 27 28 29 29 26 23 27 27 24 25 24 23 18 18 20 21 22 22 22 21 18 15 13 9 7 6 7 6 4 4
15 19 23 27 27 23 24 26 29 28 28 28 30 26 21 17 21 20 23 24 23 20 18 17 14 10 8 5 3 5 7 4
19 22 26 27 25 26 27 24 26 29 33 31 29 22 19 20 24 23 24 23 22 21 20 18 14 13 7 4 5 5 2 4
19 24 24 24 22 25 29 28 26 28 29 26 30 28 29 25 29 28 26 25 25 23 21 17 15 9 6 8 10 7 6 4
17 17 23 24 26 26 26 28 23 20 28 31 32 35 33 31 33 33 31 28 28 29 25 22 14 10 10 9 9 9 5 5
19 20 24 26 27 28 28 32 30 30 35 32 29 29 30 30 34 35 36 36 27 28 23 16 12 10 8 11 8 8 7 7
18 18 22 22 24 30 34 32 34 33 30 28 27 28 30 35 34 34 37 32 29 29 24 18 14 12 13 9 8 7 7 9
10 12 17 17 20 24 25 26 30 32 27 26 28 31 33 33 32 32 34 33 31 29 25 20 15 15 12 9 8 7 9 10
7 8 12 15 17 20 22 25 25 24 23 26 29 30 31 34 32 33 34 32 32 31 26 20 19 17 13 9 8 6 12 12
5 6 9 10 13 15 18 18 21 23 26 27 28 29 30 31 30 29 31 33 33 31 22 20 17 13 10 7 7 10 15 15
5 5 5 6 8 10 12 16 16 21 21 21 22 24 25 24 24 26 30 36 34 30 24 23 20 16 14 9 8 18 19 19
3 3 2 4 7 10 10 12 11 11 11 12 14 15 16 17 19 24 29 31 32 27 27 22 17 15 10 7 13 19 22 23
1 2 3 5 6 6 7 9 11 11 12 12 13 14 14 14 16 20 23 25 26 24 24 21 14 9 5 15 18 19 21 24
8 6 4 3 1 1 1 2 4 6 8 8 8 9 11 13 13 13 15 17 16 17 9 5 3 2 16 21 20 23 21 21
11 10 11 11 9 6 5 3 1 3 4 4 5 6 8 8 9 11 12 14 14 11 6 2 14 20 21 19 21 21 20 20
9 10 13 13 13 15 13 11 11 10 9 8 7 8 10 11 14 19 19 15 10 7 9 14 19 21 22 16 24 25 23 24

GFSFLT1_925_spd_036.txt.gz
Wind_Speed
17 23 26 25 25 26 25 21 16 14 14 13 15 14 14 13 13 13 14 13 14 13 13 14 13 11 9 7 5 3 2 1
20 22 27 26 24 23 23 23 21 19 18 18 17 17 15 13 13 13 15 14 16 15 14 16 13 11 9 8 6 4 2 3
19 23 27 31 29 27 26 25 23 21 18 17 17 17 16 15 14 13 14 15 16 17 16 16 13 12 11 9 7 4 4 5
17 23 27 29 31 30 28 26 23 22 21 19 17 14 11 14 14 14 15 17 17 17 16 16 16 14 11 10 10 9 6 7
17 21 25 29 30 29 29 27 25 24 23 22 22 20 16 14 15 15 15 15 16 17 17 17 16 13 12 12 10 10 10 8
20 22 26 26 27 29 29 28 27 26 25 23 22 22 18 15 18 19 18 17 18 19 19 18 17 15 13 12 11 11 9 7
19 23 24 26 28 29 30 30 25 21 19 21 23 21 20 18 22 22 20 20 21 21 20 20 16 14 14 13 11 11 9 8
19 19 24 26 29 29 29 28 29 27 28 28 35 25 24 24 24 25 25 27 28 27 24 19 18 17 15 13 14 13 12 10
21 21 25 26 27 28 29 29 30 33 26 31 30 24 24 24 26 28 35 35 34 28 24 21 19 20 17 14 11 14 10 11
17 20 25 24 25 28 30 27 28 27 32 22 26 26 25 24 23 28 33 29 24 23 24 23 24 18 16 14 12 12 11 11
8 10 14 20 23 23 23 26 28 29 27 20 18 20 22 23 22 24 26 23 24 23 24 24 22 22 17 15 13 12 11 11
4 6 10 14 16 19 21 23 23 25 28 22 19 19 20 21 22 22 24 23 25 26 25 25 27 18 18 16 12 8 10 10
1 5 8 10 13 15 17 18 20 22 23 21 20 17 19 20 21 19 19 20 22 25 25 24 23 18 15 14 11 6 9 10
4 5 7 10 11 12 12 13 14 14 15 15 16 16 15 16 14 14 15 18 20 21 21 21 20 18 16 12 7 7 12 14
3 6 5 7 8 9 10 10 10 10 10 10 9 10 10 11 12 13 14 16 17 19 19 15 12 12 11 10 5 12 14 16
4 5 7 8 9 9 9 9 8 8 6 6 6 6 8 9 9 9 11 13 16 20 20 17 20 17 12 9 16 15 16 19
7 7 8 9 10 11 12 10 7 6 6 6 6 6 6 6 8 10 11 14 15 21 18 17 10 12 14 19 19 22 20 22
11 10 11 13 13 12 12 13 12 10 10 9 7 7 7 8 9 10 12 15 17 18 14 11 15 15 17 23 25 26 21 22
11 12 15 16 16 17 17 16 15 15 14 12 11 10 10 11 12 13 13 13 14 13 10 12 15 19 21 26 22 20 22 25

GFSFLT1_925_spd_042.txt.gz
Wind_Speed
25 23 24 25 26 26 28 32 39 40 41 31 28 24 24 23 22 18 21 20 17 16 16 17 15 14 14 14 12 9 6 9
28 28 29 26 29 29 30 33 32 30 29 20 16 17 17 21 13 16 15 17 17 18 17 19 19 17 17 16 14 13 9 8
20 28 29 30 29 31 30 30 28 28 23 24 20 18 18 21 22 18 18 19 21 21 19 18 17 16 17 19 15 14 13 12
18 24 27 30 35 34 33 32 31 30 26 26 23 23 24 25 23 23 22 20 20 20 20 17 17 18 21 18 18 15 14 13
21 24 29 31 34 38 36 33 31 30 29 24 26 21 22 22 22 20 21 22 22 19 21 21 18 22 17 18 19 17 15 6
23 24 34 37 34 37 37 37 35 35 33 29 26 27 25 22 23 20 17 17 23 23 18 23 21 23 18 22 21 19 13 13
19 32 36 37 39 37 36 34 33 33 37 31 23 24 20 25 20 21 19 21 23 22 21 21 24 22 22 19 18 19 15 13
16 20 25 34 37 40 39 38 34 32 38 37 31 26 26 23 22 23 23 23 22 24 23 23 27 26 22 19 19 17 18 17
17 17 24 31 37 39 38 38 36 34 30 37 37 37 39 34 31 28 32 30 30 25 28 31 29 29 23 19 20 20 16 15
21 21 26 30 34 37 40 36 36 34 36 38 42 35 35 31 29 29 30 29 26 26 28 30 30 26 23 25 25 18 14 14
12 13 17 29 36 40 41 41 38 35 33 32 32 30 25 25 21 25 25 23 27 27 29 28 29 25 26 27 22 17 17 13
4 5 5 16 31 28 39 38 33 33 36 32 32 23 18 18 20 20 21 25 26 25 25 25 26 28 27 24 20 17 16 13
5 4 3 5 6 9 33 35 33 30 33 31 29 26 20 20 18 19 21 24 23 17 18 21 23 27 24 19 19 14 14 16
6 4 4 4 3 4 10 22 21 32 34 30 28 22 22 19 20 22 21 20 18 15 20 23 26 23 19 20 20 16 17 12
5 9 7 7 10 8 7 11 11 14 28 25 24 20 20 17 17 18 18 17 17 19 20 21 18 21 21 20 17 21 15 14
6 4 9 10 10 11 13 12 10 16 20 24 23 19 16 13 12 13 14 15 16 16 17 18 20 21 19 19 21 19 16 17
5 7 12 9 12 12 15 15 12 12 20 22 18 17 13 12 12 12 12 13 14 15 17 21 20 18 20 20 17 16 13 16
4 5 10 15 14 18 15 15 14 12 18 17 17 17 18 17 16 15 14 14 14 16 16 17 16 15 15 15 13 15 12 12
6 6 11 17 18 18 18 17 18 18 17 16 16 17 17 15 15 15 14 14 14 15 13 12 10 10 7 10 10 12 15 18

GFSFLT1_925_spd_045.txt.gz
Wind_Speed
21 21 22 23 26 24 31 35 35 35 32 33 34 36 34 36 26 17 18 19 21 17 18 17 20 20 16 16 17 13 16 14
25 28 26 28 27 27 28 28 36 38 33 32 29 34 37 32 25 29 26 24 20 22 23 18 22 21 21 20 18 20 12 12
21 27 28 29 30 28 30 33 37 37 34 36 31 35 34 36 34 27 24 25 23 26 24 20 27 22 21 23 23 19 18 13
19 25 29 30 31 31 36 37 40 42 37 29 27 26 25 29 32 31 28 26 27 29 24 22 25 22 23 25 26 22 17 16
20 25 28 31 35 37 38 40 41 38 34 29 30 24 24 29 34 31 31 34 31 25 23 26 22 22 24 25 25 23 16 18
23 24 34 35 35 37 37 36 36 36 36 34 35 32 33 31 31 32 30 28 26 27 26 25 24 25 26 23 26 24 24 18
24 35 37 39 39 38 38 38 37 36 40 41 37 30 36 33 31 32 25 27 29 30 27 24 27 25 25 23 22 20 26 19
24 23 28 34 39 42 42 41 39 39 42 44 43 41 40 38 39 37 33 29 28 26 29 26 26 26 26 24 22 23 23 24
26 27 33 38 42 43 43 42 41 42 44 48 46 46 41 39 39 40 34 34 31 33 32 28 24 26 28 25 24 25 22 24
21 27 36 37 40 43 43 43 43 43 42 47 47 48 35 35 40 37 34 32 32 30 30 28 24 27 29 29 28 26 28 23
15 16 30 34 37 40 41 43 47 50 47 48 47 42 39 34 33 32 31 28 27 29 29 28 28 30 29 28 24 26 25 20
9 9 22 26 27 37 40 39 31 34 37 40 40 41 45 34 28 28 26 25 27 28 29 29 30 29 27 25 25 25 20 16
9 9 15 21 27 37 37 44 44 42 42 36 38 33 30 21 25 26 22 23 26 28 28 26 24 25 26 25 25 22 19 18
7 8 9 12 17 40 45 46 45 40 37 35 32 31 31 38 36 27 24 23 25 26 22 20 18 20 22 24 23 21 20 21
8 7 7 8 8 11 28 33 34 35 34 37 30 30 31 30 28 25 22 20 21 21 19 18 19 20 22 23 22 19 18 13
8 8 7 8 12 17 24 23 32 30 32 26 27 26 24 26 22 21 20 18 19 18 18 19 21 21 22 23 22 21 15 18
8 8 8 8 15 20 23 25 23 25 27 27 28 27 25 23 21 20 18 17 17 17 18 19 19 19 21 19 16 17 16 9
9 10 12 15 20 27 25 25 25 25 25 26 27 25 23 20 19 18 17 17 16 16 16 19 20 19 16 13 16 14 9 9
8 9 10 19 26 30 32 26 27 29 26 24 26 28 26 23 21 20 18 17 18 18 19 18 17 17 16 14 12 10 9 9

GFSFLT1_925_spd_048.txt.gz
Wind_Speed
14 15 14 15 17 20 25 24 28 33 35 32 27 31 36 30 28 28 24 11 11 14 16 16 18 21 21 22 23 19 16 16
16 18 20 20 19 19 20 31 32 34 34 34 30 28 34 33 30 30 25 18 16 18 18 18 19 25 25 24 20 19 17 18
14 17 22 24 24 26 25 25 36 33 32 31 33 34 37 40 36 37 35 27 20 23 22 22 23 26 27 25 25 23 17 19
14 19 21 24 24 29 31 30 35 35 38 36 29 30 29 32 35 38 39 29 29 29 27 25 26 28 31 29 29 29 26 22
16 20 24 27 29 30 31 35 35 37 33 32 30 27 27 32 32 35 37 31 30 26 28 27 27 32 33 30 29 30 27 24
20 22 31 32 31 31 34 34 36 34 37 33 31 27 27 27 31 34 37 38 35 32 30 29 31 34 34 29 28 31 31 27
21 31 31 32 34 34 34 35 35 38 38 36 33 32 30 33 36 39 40 40 40 35 34 34 34 34 28 28 28 31 31 26
21 21 26 31 34 37 36 37 36 37 38 40 42 40 35 36 42 40 38 38 39 37 35 35 29 29 29 28 30 31 31 25
23 24 31 36 39 40 40 41 41 43 43 43 45 44 37 41 42 39 42 41 40 35 33 32 31 30 30 29 29 30 29 27
24 23 33 35 38 42 46 44 44 45 46 42 42 40 40 37 42 41 42 42 40 36 35 32 29 30 29 30 29 28 28 28
20 19 29 35 39 44 45 44 48 45 36 36 39 40 38 36 39 44 45 43 43 37 34 29 30 30 28 28 30 29 27 22
18 20 30 36 37 35 41 43 39 39 41 45 48 46 42 38 36 41 42 43 40 37 34 29 29 30 30 27 29 28 24 21
17 18 29 33 35 36 39 41 39 44 47 43 40 31 34 32 34 34 25 31 37 34 28 25 28 31 27 28 28 25 24 26
7 10 16 25 30 31 36 39 43 41 38 38 37 30 34 38 32 32 40 37 32 30 26 27 27 25 25 27 27 26 28 27
6 10 16 24 28 28 31 35 37 39 38 38 35 34 37 37 40 39 41 42 34 30 28 27 26 25 25 26 26 27 25 23
9 8 9 12 17 24 29 34 31 35 35 36 34 36 38 40 37 37 34 36 33 31 28 24 23 23 24 24 25 24 23 21
12 12 9 11 18 24 28 29 33 34 30 29 27 31 34 33 30 28 30 28 27 26 25 24 23 23 22 22 25 24 22 20
10 14 13 15 22 29 25 27 30 29 27 26 25 28 29 30 32 31 29 26 25 25 23 23 22 21 20 21 19 20 18 15
9 8 8 15 22 23 26 26 27 26 24 23 24 27 27 28 29 29 27 25 24 21 21 21 21 21 20 19 17 18 14 10

GFSFLT1_925_spd_054.txt.gz
Wind_Speed
14 12 10 10 11 11 13 16 30 35 34 31 29 36 34 33 36 39 39 37 30 25 23 23 21 22 20 19 17 17 17 16
19 16 14 12 10 10 10 17 25 32 34 32 30 34 31 29 33 37 32 30 23 24 23 20 23 24 20 20 20 20 17 18
12 17 16 15 15 13 12 19 28 31 35 24 26 29 36 31 23 31 29 27 23 24 22 18 23 25 19 22 23 22 20 19
11 14 16 16 15 16 17 20 23 27 29 25 21 24 32 31 21 27 28 28 21 17 20 18 20 17 18 21 24 25 23 22
9 13 17 20 21 18 19 21 24 29 31 32 30 22 30 28 27 24 29 36 30 21 17 15 16 16 18 19 22 27 26 25
13 14 21 22 27 24 22 23 25 26 33 32 35 30 31 30 34 30 32 32 37 30 24 20 20 21 21 21 26 29 31 29
11 16 21 23 27 28 28 26 31 31 33 34 37 35 33 35 33 33 33 35 38 39 32 29 27 23 24 25 28 30 32 34
11 14 16 23 28 32 32 32 31 34 34 34 36 39 39 39 41 36 35 37 39 44 42 41 37 35 30 30 30 32 31 30
13 15 19 25 30 32 34 33 31 37 38 39 39 42 43 42 41 40 41 40 41 43 44 44 42 38 36 35 34 31 30 33
16 14 22 25 28 33 37 34 34 35 38 39 41 43 41 36 37 40 44 45 43 38 35 35 36 38 36 32 37 36 37 36
10 13 18 25 29 32 36 36 36 35 39 41 37 38 37 35 31 35 35 37 39 38 35 34 37 40 38 39 44 42 43 35
11 12 19 20 23 29 34 35 37 39 42 39 38 38 37 38 38 37 36 37 38 38 37 36 38 37 36 35 40 38 39 36
10 10 12 19 23 26 30 30 32 40 36 33 35 32 35 39 40 39 40 42 41 41 39 39 40 38 34 33 35 37 36 34
7 8 12 16 24 26 29 32 40 34 33 32 34 38 38 39 40 42 37 40 42 42 43 41 41 35 36 35 34 35 34 34
7 8 12 17 23 26 28 32 34 32 34 35 35 40 44 44 42 37 40 39 40 39 43 43 40 40 39 35 31 34 35 35
9 10 11 13 20 24 27 30 32 34 36 37 44 42 38 36 38 39 36 37 41 39 41 38 39 41 40 33 32 35 35 31
9 8 7 9 19 25 28 29 34 33 33 38 36 32 33 37 37 38 37 38 37 37 38 37 36 37 37 33 32 31 30 28
11 12 13 12 23 29 28 34 28 32 33 33 31 30 32 35 35 34 36 36 34 36 38 36 34 33 31 29 28 26 24 24
12 10 10 21 26 27 31 26 30 29 28 28 28 31 31 30 30 31 29 30 33 32 33 31 29 28 25 24 21 20 21 21

GFSFLT1_925_spd_057.txt.gz
Wind_Speed
12 11 10 10 10 13 18 26 32 27 30 28 26 28 28 32 34 35 31 28 33 33 31 30 27 25 24 22 22 21 19 18
12 12 12 12 11 11 14 16 32 30 31 28 26 29 28 28 34 32 36 29 34 33 31 28 27 27 26 23 21 21 18 17
13 16 15 15 14 14 13 17 25 32 31 30 27 33 29 24 27 33 38 35 37 35 30 29 27 27 25 23 24 19 12 20
15 17 19 18 18 17 16 18 28 33 31 29 24 31 26 26 30 28 27 36 36 33 30 29 24 26 25 25 26 23 14 20
16 18 21 22 20 18 17 16 23 24 34 33 36 36 30 30 32 33 30 31 30 31 28 17 22 26 26 24 23 29 23 16
19 19 25 23 22 22 21 19 24 28 31 30 31 31 31 23 31 31 31 31 33 33 26 29 28 22 24 20 22 27 27 20
16 22 23 22 22 21 23 25 24 28 29 30 31 30 31 24 33 35 34 30 33 34 34 31 34 31 26 23 23 22 24 25
17 19 21 23 24 25 25 26 27 28 29 28 32 35 34 35 31 36 39 35 36 37 35 38 43 35 29 26 23 22 22 24
19 20 23 27 28 29 27 28 28 29 30 31 33 32 36 37 38 35 37 37 37 36 40 39 39 37 34 32 32 29 24 25
18 18 25 27 29 32 33 32 31 33 34 34 33 35 34 34 33 33 34 35 35 38 41 40 38 40 37 32 30 32 28 26
14 16 23 26 28 31 31 32 34 34 34 36 37 36 34 33 32 34 35 35 35 35 41 41 39 38 39 35 29 29 31 32
13 14 21 24 24 27 30 32 33 32 33 33 34 37 38 36 36 35 36 34 33 34 33 32 33 35 35 31 32 31 32 35
9 12 18 23 27 28 32 32 32 35 35 34 34 33 35 36 39 41 39 39 34 35 34 37 41 39 38 37 32 33 32 33
6 10 14 18 24 27 31 33 36 32 32 33 33 36 36 41 48 48 38 40 41 35 35 36 36 38 39 41 38 37 36 34
5 8 12 17 22 26 29 31 32 33 34 34 35 38 44 43 37 35 39 40 38 41 41 38 36 37 39 43 43 41 37 36
8 9 11 11 17 21 24 26 29 32 32 34 40 41 37 36 35 36 38 38 38 37 36 37 37 34 35 35 36 38 36 36
12 9 9 12 18 22 23 25 28 31 32 39 33 30 30 33 34 35 33 35 34 34 35 34 32 36 38 39 36 36 39 36
12 13 11 11 19 25 25 29 24 30 33 31 29 29 30 31 30 30 33 34 32 33 33 32 35 35 38 40 36 37 33 33
11 11 10 17 19 18 24 19 26 28 28 26 25 27 27 24 24 28 29 28 28 30 32 35 35 35 39 37 32 34 30 27

GFSFLT1_925_spd_060.txt.gz
Wind_Speed
13 13 14 14 13 14 16 23 22 25 26 26 25 29 33 34 23 22 24 25 17 18 19 20 20 19 19 17 16 14 15 15
14 14 15 15 14 13 17 23 26 28 25 27 25 25 32 34 30 20 24 24 27 23 21 21 21 20 19 18 15 15 13 13
13 16 16 17 17 16 14 18 27 27 28 31 29 26 25 35 32 27 23 25 25 23 21 22 21 19 18 18 16 14 14 16
16 16 19 17 17 16 17 18 28 33 30 28 26 22 22 24 32 33 28 23 22 24 26 22 22 19 19 17 17 17 13 15
16 17 19 19 18 17 17 18 21 28 30 31 32 35 30 29 31 29 28 25 25 26 26 23 21 20 18 17 16 16 17 16
18 18 20 20 19 19 18 18 20 24 31 30 34 32 32 28 28 30 30 26 23 28 28 23 22 21 17 15 12 17 18 21
18 20 20 20 20 20 20 22 22 24 32 32 32 31 30 27 26 26 28 26 30 35 36 31 26 26 22 21 16 19 20 21
18 20 18 23 24 24 22 23 24 25 30 32 36 35 34 35 32 33 29 29 28 30 33 35 38 31 26 26 35 32 25 23
19 21 22 25 26 27 26 27 27 28 30 31 31 34 33 36 37 32 32 33 33 37 41 32 34 39 37 31 30 27 24 23
19 21 25 26 28 29 29 29 29 30 32 31 31 33 33 36 38 35 35 33 33 37 39 34 31 30 35 31 32 32 29 26
15 19 24 28 28 30 30 29 30 30 32 33 35 36 35 35 36 40 39 38 36 32 34 36 36 32 32 32 33 34 33 32
13 15 22 25 26 28 30 32 32 32 33 34 34 35 35 35 36 39 39 39 38 39 37 37 37 38 37 36 36 35 35 35
10 13 18 23 27 29 31 31 33 34 33 34 35 34 34 36 37 38 37 39 42 42 41 41 41 40 39 38 38 38 36 35
7 11 13 17 24 28 30 33 35 33 34 34 34 36 37 40 40 40 37 38 38 39 40 42 44 45 43 41 42 40 38 36
5 8 12 15 21 25 28 31 32 33 33 35 36 38 40 40 38 38 39 39 37 38 39 41 40 39 40 41 40 38 37 38
9 10 9 10 17 22 25 27 29 32 34 35 39 37 35 35 35 35 35 34 37 38 38 38 38 36 36 35 34 32 31 33
16 10 9 11 15 20 24 27 29 30 33 38 34 34 34 35 35 34 33 34 34 35 35 36 36 37 38 41 39 34 32 32
16 15 11 11 14 17 22 25 24 29 32 31 31 32 33 33 31 32 34 34 32 35 35 34 35 35 36 38 39 38 34 36
18 15 14 20 16 14 17 20 24 28 30 29 29 30 30 29 29 31 30 29 30 30 31 31 31 33 35 37 38 42 41 36

GFSFLT1_925_spd_063.txt.gz
Wind_Speed
13 13 14 16 16 15 17 17 17 20 17 21 20 25 31 37 35 26 27 26 24 20 19 18 17 19 18 18 17 17 17 16
14 14 14 15 18 18 17 19 22 25 23 24 24 24 31 31 32 26 28 27 24 19 16 20 19 19 19 17 16 16 15 14
13 16 16 17 17 18 17 23 27 28 28 23 22 25 30 33 30 25 24 27 28 30 22 19 21 16 19 20 19 16 15 15
15 16 18 18 18 19 19 21 27 29 28 25 20 24 24 28 29 28 27 26 25 25 23 20 23 20 21 21 20 18 16 16
16 17 19 20 18 18 20 21 25 30 29 31 30 30 30 36 34 29 35 33 23 23 25 24 23 23 23 23 20 18 17 16
16 18 21 21 20 20 20 22 23 25 29 28 33 30 28 29 35 30 29 37 33 30 30 37 27 24 23 21 20 19 18 19
15 19 21 21 20 20 19 22 22 25 29 31 33 34 30 28 30 34 34 32 31 34 34 35 38 27 27 25 22 21 20 16
15 18 17 22 23 22 21 23 25 25 29 31 33 33 33 33 34 35 35 35 30 33 32 30 37 41 32 28 28 23 19 18
16 19 17 23 25 25 24 24 26 25 29 31 31 33 30 33 34 35 35 37 37 31 32 33 34 37 35 32 30 30 26 24
16 18 21 24 26 27 27 26 26 28 28 31 32 32 31 32 34 33 35 36 34 33 34 34 34 35 37 37 31 31 28 27
16 17 19 25 25 26 26 26 27 28 29 30 31 33 33 31 31 32 35 38 35 32 34 34 37 37 37 35 33 33 31 29
10 15 21 23 23 24 26 26 27 27 28 29 31 32 34 32 33 35 38 37 37 36 34 34 35 37 39 37 35 33 33 34
10 13 15 22 24 25 26 27 28 29 28 29 32 33 36 35 36 35 35 37 38 39 37 36 38 38 38 39 39 37 37 38
0 8 12 15 22 24 26 28 29 28 29 30 30 32 34 38 39 37 35 35 37 39 36 40 38 39 38 39 43 43 41 40
2 5 7 11 18 22 25 27 29 30 31 32 32 34 36 35 34 34 36 36 36 36 40 40 38 39 39 39 40 42 42 42
15 10 6 8 12 16 21 25 28 30 31 33 36 32 33 34 33 35 35 36 36 38 38 38 40 41 41 42 42 43 42 42
14 15 16 12 10 13 18 22 26 28 32 34 32 33 34 35 35 36 35 37 38 37 39 39 40 41 44 46 44 38 39 38
14 13 13 14 17 15 15 18 22 27 31 32 33 32 34 35 34 34 36 37 34 37 38 37 39 39 42 43 43 42 37 34
16 15 16 20 20 19 18 15 18 25 28 30 31 31 33 33 33 36 36 35 35 35 35 35 35 36 36 38 39 41 38 38

GFSFLT1_925_spd_066.txt.gz
Wind_Speed
16 16 14 17 16 19 18 16 15 17 16 14 14 16 27 36 38 39 35 31 29 24 17 27 23 24 19 22 23 21 20 18
19 19 19 17 21 17 20 19 19 22 20 21 21 20 26 32 33 42 33 23 30 20 18 21 20 20 15 20 17 18 17 19
14 19 18 17 23 21 20 22 23 24 21 18 19 25 25 35 30 35 28 28 28 23 20 21 18 18 18 20 17 16 10 14
17 15 19 21 22 24 21 22 25 26 23 23 23 21 24 25 31 31 30 31 32 30 19 25 25 21 23 23 20 18 17 19
19 17 18 22 20 27 24 25 29 28 30 25 30 24 26 30 29 28 31 32 35 35 31 29 32 26 23 24 26 25 23 22
18 19 21 23 22 26 27 28 29 28 30 25 28 27 26 27 27 25 31 33 36 37 36 31 30 32 24 28 26 28 25 23
14 21 25 23 25 24 23 30 30 28 32 30 30 29 31 30 29 25 26 31 37 31 32 33 31 31 29 25 28 28 28 28
11 18 16 22 26 27 26 28 28 31 31 33 33 31 30 30 36 30 29 28 31 34 30 28 33 34 28 26 30 27 35 30
10 15 15 21 26 27 26 27 25 30 33 31 34 32 30 30 33 35 32 33 33 36 34 35 36 31 36 36 33 32 30 28
10 11 15 21 26 28 28 26 28 29 30 32 32 35 34 31 31 33 36 35 32 34 35 39 41 35 36 41 40 40 35 35
14 13 16 23 25 27 28 28 27 32 31 31 32 33 33 34 34 35 35 36 38 36 34 33 36 40 40 39 37 41 41 39
8 11 17 23 23 25 28 26 27 28 32 31 32 32 34 33 34 36 37 38 38 40 40 36 37 39 38 40 40 38 39 37
4 6 10 18 18 21 25 25 24 27 30 32 33 33 34 35 35 36 38 38 39 41 41 40 41 40 40 41 39 38 39 38
5 5 6 12 17 18 20 24 24 24 27 30 30 33 35 37 37 38 38 37 37 40 42 43 41 39 39 42 43 42 43 43
16 14 4 6 14 18 19 21 25 25 25 27 31 35 37 38 38 36 39 38 37 40 43 44 43 43 44 45 45 45 45 45
15 15 14 15 8 12 19 21 24 26 27 28 30 31 33 34 37 39 39 39 39 40 40 43 42 45 44 45 45 42 42 42
14 15 16 16 20 22 24 11 22 25 28 31 27 30 31 36 36 34 36 38 40 38 41 40 42 45 43 45 44 39 40 39
14 15 14 19 26 30 29 27 24 20 26 28 29 29 31 33 33 33 37 38 36 40 40 39 42 42 45 47 47 46 39 38
12 10 16 22 25 28 30 33 32 27 19 25 26 27 30 30 30 35 35 34 34 35 36 36 34 36 37 37 40 41 43 39

GFSFLT1_925_spd_072.txt.gz
Wind_Speed
20 28 32 32 32 32 28 22 19 18 19 18 16 16 20 26 33 35 38 37 38 40 40 41 40 41 39 34 31 28 27 25
20 25 30 32 33 32 30 25 23 21 20 21 18 17 21 27 29 33 37 37 35 39 37 40 42 42 42 37 28 32 32 28
14 22 26 31 34 35 32 29 26 23 20 20 18 21 21 28 29 35 34 37 34 34 37 38 39 39 41 37 29 28 26 34
16 17 24 26 29 33 32 33 31 27 23 20 19 18 18 22 25 27 30 34 34 34 34 36 38 39 39 34 31 32 24 34
19 18 19 27 29 32 34 33 31 28 27 24 23 18 15 18 20 27 28 30 28 28 34 37 32 33 31 34 33 32 31 27
21 22 26 27 30 31 35 32 30 29 28 27 23 19 18 19 24 25 30 35 30 26 31 36 36 33 33 29 22 22 31 34
22 18 24 24 28 27 33 33 33 32 30 28 27 24 22 21 24 26 26 33 33 25 25 32 28 27 29 32 24 24 27 34
17 18 16 24 28 28 26 31 26 32 32 30 28 26 26 25 25 27 27 28 34 34 33 31 39 32 28 37 38 36 33 29
20 20 19 26 29 30 28 28 25 28 30 29 29 28 26 29 32 27 30 31 35 35 38 36 36 35 35 36 39 40 32 30
20 18 18 25 28 32 32 29 27 27 30 28 29 29 30 30 31 31 30 28 30 32 39 41 39 37 35 32 32 32 33 33
16 18 17 23 26 27 28 31 31 29 31 28 27 26 27 29 32 35 33 33 31 31 34 38 41 40 38 36 34 37 36 37
9 11 15 19 24 26 27 26 27 27 26 28 28 29 27 25 30 34 36 36 37 35 36 38 38 40 42 41 39 38 38 38
10 9 9 6 11 21 27 26 26 30 29 28 30 31 30 30 27 29 34 34 36 39 37 37 38 38 36 36 36 34 37 38
20 18 15 14 13 6 2 5 12 24 31 31 30 31 31 31 31 30 30 33 33 35 38 38 38 39 40 40 38 37 36 35
18 16 14 19 21 22 21 12 5 13 17 20 25 32 36 35 34 34 34 33 34 34 37 37 38 39 39 39 39 40 41 42
17 14 12 17 21 21 21 22 22 13 16 23 21 22 26 27 28 31 35 36 35 35 35 35 36 39 41 41 40 39 40 40
17 15 15 16 20 21 22 23 24 23 24 17 1 18 27 29 30 32 34 35 35 36 37 36 37 40 42 43 41 38 39 39
13 14 14 18 17 17 19 19 20 23 23 23 22 18 13 9 23 30 33 33 33 37 38 38 38 40 43 43 45 47 41 40
14 11 15 16 17 18 18 19 21 21 21 20 22 22 20 18 14 12 24 31 34 36 37 38 37 41 42 45 47 48 46 44

GFSFLT1_925_spd_075.txt.gz
Wind_Speed
20 27 30 33 31 29 27 26 23 20 15 11 9 9 12 14 20 33 25 36 41 37 36 40 42 41 39 40 36 29 27 28
16 24 29 31 30 31 30 29 25 21 19 16 11 10 10 14 21 27 32 38 33 33 34 37 40 41 40 39 35 29 25 27
14 21 26 30 29 31 33 30 26 23 20 18 12 14 11 14 19 27 27 31 29 29 31 36 35 35 40 37 36 26 23 28
15 16 25 27 28 31 34 31 27 24 20 20 15 15 9 13 16 22 28 33 38 36 31 35 34 34 39 40 34 30 20 29
16 17 18 29 29 31 31 30 29 26 24 22 22 15 11 13 21 23 26 32 32 37 33 34 36 33 37 40 35 31 30 24
17 20 26 27 27 28 26 24 24 26 27 23 25 19 15 14 17 21 23 25 36 36 37 32 30 34 34 39 35 29 34 28
18 14 21 24 25 25 25 25 24 28 29 26 25 23 20 17 20 20 24 22 26 32 28 31 34 29 29 34 34 32 28 27
13 17 17 25 28 26 26 26 23 26 30 28 27 25 22 21 19 19 21 22 22 26 29 30 34 40 34 34 26 25 23 19
19 20 19 25 28 28 27 27 24 24 26 25 26 25 23 23 22 20 22 22 23 32 31 31 32 39 41 33 33 34 31 25
18 16 15 25 28 29 27 26 24 25 24 23 25 26 25 23 22 23 22 22 25 27 31 30 30 35 35 29 29 32 33 33
9 12 15 22 24 24 23 23 26 23 21 20 20 25 25 24 23 26 27 26 25 28 30 30 30 31 39 36 33 34 39 39
8 7 12 15 14 14 16 17 19 18 19 20 18 24 23 24 24 24 26 26 26 25 29 32 33 33 33 35 33 30 36 36
14 13 14 17 17 14 13 13 14 12 15 17 16 18 21 20 22 24 26 29 29 31 30 32 33 34 36 37 37 33 39 37
18 17 16 15 15 15 14 14 15 13 17 17 17 20 23 23 23 24 24 27 30 33 35 35 35 35 36 36 37 37 36 38
17 16 15 18 20 19 20 19 4 12 17 17 16 21 26 28 27 28 29 29 30 31 33 34 35 37 36 37 38 38 37 37
15 14 12 17 20 21 20 20 18 13 12 13 14 19 22 24 25 28 31 31 31 33 32 34 35 35 34 35 36 36 37 37
15 14 14 15 21 22 19 18 17 18 19 14 10 9 1 17 24 28 30 31 32 33 33 33 33 36 37 40 40 36 36 37
14 13 13 19 21 16 18 17 16 20 19 18 16 13 10 8 7 5 13 22 28 31 33 33 35 36 37 39 41 44 38 37
11 11 17 18 18 18 19 20 21 21 21 17 16 14 13 13 12 12 12 13 12 18 28 30 32 33 29 38 44 47 44 43

GFSFLT1_925_spd_078.txt.gz
Wind_Speed
22 25 27 28 28 29 25 24 25 23 19 16 13 12 15 19 21 25 31 36 34 26 36 37 40 40 40 41 39 34 32 30
14 21 27 27 28 28 25 26 28 24 20 19 15 15 12 15 20 28 30 30 38 36 34 35 37 40 43 41 39 33 26 27
7 18 25 28 26 22 26 26 27 25 20 17 11 14 11 10 11 19 28 32 35 39 37 35 36 35 39 39 37 30 22 31
11 14 24 24 26 26 25 28 25 26 20 18 12 13 9 8 19 19 23 23 27 24 29 31 33 36 40 41 39 34 24 32
10 13 14 27 27 24 25 29 25 22 23 21 18 11 10 10 17 22 21 25 27 24 20 23 30 32 34 37 39 35 32 26
15 19 23 24 26 27 29 29 25 21 23 20 19 16 15 12 12 13 21 25 27 31 28 28 31 33 36 39 38 33 29 29
9 9 16 20 22 25 29 27 23 21 23 19 20 19 17 16 13 13 16 20 24 33 35 31 30 32 33 35 37 34 32 27
12 15 15 22 26 27 26 26 22 20 22 21 19 19 19 17 17 18 19 19 22 24 41 34 36 33 30 31 32 33 30 31
14 18 18 24 28 27 27 27 23 21 19 19 20 19 18 16 18 18 19 19 22 20 30 37 34 34 34 33 29 30 28 25
11 11 16 24 29 28 27 25 20 20 18 15 18 19 18 16 14 15 16 18 20 19 22 26 30 38 39 34 33 32 28 26
7 9 10 16 19 18 18 20 18 17 15 14 13 15 17 16 16 16 14 15 15 17 18 25 29 31 33 37 39 36 37 36
10 11 13 17 18 17 15 17 20 18 16 14 13 13 16 17 16 16 17 16 16 17 20 21 26 28 30 32 31 32 37 36
11 12 14 19 19 18 15 16 17 15 15 16 14 13 15 17 18 17 16 18 20 22 22 24 27 28 29 32 34 29 30 32
14 14 11 11 16 17 16 16 14 13 12 14 13 13 15 18 18 16 16 16 18 22 25 25 26 28 29 31 33 33 31 34
14 14 13 16 20 19 20 19 9 9 10 11 12 13 14 18 18 17 17 18 19 20 23 27 29 31 32 32 33 35 32 32
16 14 12 15 19 21 21 20 18 7 6 6 5 5 11 15 18 20 20 20 21 22 23 25 27 28 30 31 33 33 34 35
16 14 15 14 19 20 19 20 19 19 18 15 11 9 8 6 4 9 17 22 25 26 26 28 29 29 29 31 34 34 35 34
13 13 15 18 19 17 18 16 18 24 19 17 15 13 13 11 8 5 5 4 4 7 17 26 29 22 24 32 36 39 34 32
9 11 17 18 15 15 16 26 23 19 21 19 16 16 14 14 14 13 12 10 9 9 9 9 4 4 12 13 23 34 36 34

GFSFLT1_925_spd_081.txt.gz
Wind_Speed
16 14 18 20 22 24 25 27 22 22 22 21 18 17 17 19 21 25 29 29 35 34 33 36 38 37 33 32 28 22 22 22
15 11 16 19 22 24 29 28 26 26 25 22 17 16 16 18 21 21 26 31 33 38 33 38 39 38 35 35 29 27 20 21
11 12 17 23 26 26 28 29 29 29 27 19 15 14 15 15 18 23 30 33 32 36 31 39 41 36 34 36 32 25 20 25
13 12 20 22 27 29 28 30 31 30 26 17 15 14 10 12 15 15 16 28 32 30 40 39 39 35 35 37 37 30 22 24
14 13 16 27 27 26 28 31 31 31 23 18 21 14 10 9 15 12 13 17 27 33 38 37 35 32 32 36 35 31 25 24
15 17 18 21 25 26 27 28 29 28 22 20 20 14 12 14 13 15 17 18 20 25 33 31 31 32 32 35 34 31 28 26
10 12 17 21 23 24 25 28 26 27 23 20 21 15 14 16 13 15 18 21 23 22 24 26 26 27 30 36 38 36 32 28
9 14 16 22 28 26 25 25 25 25 27 22 18 16 16 19 15 13 13 13 18 23 24 28 28 25 27 31 33 34 34 33
9 12 13 20 26 28 26 27 23 23 23 21 16 15 13 14 12 11 13 14 15 23 27 28 30 32 32 32 31 31 34 33
11 10 11 18 21 21 27 26 22 20 20 20 17 15 13 13 11 11 12 14 14 18 25 31 35 33 33 31 30 28 30 31
8 6 11 16 20 21 21 23 21 21 19 19 17 16 15 13 12 11 10 11 12 14 20 26 31 33 33 36 36 28 29 30
6 6 11 17 18 21 24 22 22 20 19 18 16 17 18 16 15 13 12 11 12 12 17 22 26 34 35 32 31 32 31 31
13 6 10 15 17 19 21 21 21 19 17 16 15 14 16 17 15 16 16 16 13 14 15 18 22 28 32 34 35 33 36 35
14 16 10 10 15 16 18 16 17 16 14 14 13 11 11 15 13 13 14 14 13 13 15 17 18 20 25 29 30 31 33 34
14 13 13 17 19 19 19 15 13 14 12 10 9 8 7 9 10 10 10 12 12 14 15 17 17 16 18 21 28 30 31 33
14 14 13 16 19 21 21 19 20 16 18 16 11 5 4 4 8 9 9 10 11 12 14 15 17 19 24 27 27 29 31 31
12 14 14 14 20 19 18 20 20 21 22 17 14 13 12 12 9 6 5 4 5 9 13 16 18 16 21 26 29 26 28 29
12 13 13 17 21 17 18 19 17 25 22 18 17 16 15 13 11 11 11 9 6 8 9 6 9 2 4 15 26 29 24 21
11 11 16 19 21 19 19 21 19 25 20 23 23 18 16 14 15 15 14 14 15 15 14 13 11 15 10 7 8 17 14 8

GFSFLT1_925_spd_084.txt.gz
Wind_Speed
18 13 13 17 22 25 26 26 24 21 17 14 13 12 20 21 23 24 26 29 29 26 27 28 33 31 32 35 25 24 24 23
19 13 12 17 21 25 28 28 26 24 20 18 15 16 14 16 15 20 20 26 29 29 28 32 35 34 39 39 27 26 24 24
17 17 13 19 23 26 28 29 30 25 22 19 15 14 12 13 15 17 19 20 23 29 29 34 38 35 35 40 30 28 26 27
17 17 17 18 23 28 30 30 29 27 22 19 15 13 9 12 14 15 17 21 26 30 37 27 43 40 40 42 35 31 26 28
19 18 17 22 24 26 27 29 28 26 25 21 19 16 14 14 13 13 11 14 17 32 36 36 32 38 38 41 34 32 28 28
17 16 19 21 22 26 27 27 28 27 27 21 19 17 14 11 12 11 10 10 14 22 30 36 40 35 40 39 33 31 28 27
14 13 15 19 22 26 27 29 28 27 26 21 19 18 15 12 12 15 13 11 11 19 28 32 35 33 36 34 32 30 26 26
10 8 11 18 25 26 26 29 28 28 24 21 18 17 15 14 14 16 17 15 14 15 21 24 31 30 33 32 28 28 26 25
11 7 9 16 22 23 24 28 28 28 24 20 18 16 14 14 14 12 12 14 19 20 18 19 23 26 29 28 28 24 23 24
16 6 8 15 20 22 25 27 26 26 23 20 18 17 15 14 15 13 11 10 12 19 22 24 25 25 26 27 25 28 27 24
18 7 6 12 17 21 24 26 26 26 23 20 18 17 16 15 14 13 11 10 11 13 20 24 28 30 32 30 29 26 28 32
17 8 4 9 15 19 19 22 23 24 23 20 19 16 15 14 13 12 12 12 12 13 14 23 28 31 31 34 31 32 28 23
15 14 4 12 14 18 18 20 20 21 19 18 17 17 15 13 13 12 12 12 12 12 14 21 24 29 32 31 32 30 31 28
14 13 13 9 12 15 17 18 18 18 18 16 15 14 13 12 11 10 10 10 10 11 12 14 21 26 23 32 33 32 31 32
14 13 13 16 17 17 13 14 18 17 16 15 15 12 11 11 11 9 10 10 10 9 11 12 13 14 19 27 30 30 31 32
13 12 11 15 18 19 19 19 20 21 19 16 14 14 12 10 8 8 8 9 9 9 10 11 12 12 11 15 20 22 23 25
12 12 13 13 18 19 18 18 21 22 20 17 14 15 16 15 13 11 11 9 7 8 7 8 7 6 10 18 20 14 16 20
11 12 12 17 18 17 18 18 18 21 23 20 18 17 16 16 16 15 16 15 14 15 13 11 8 2 3 12 18 17 15 9
11 10 15 16 15 16 18 22 23 21 20 20 20 20 19 16 19 19 19 19 19 18 17 15 13 15 7 2 3 6 7 9

GFSFLT1_925_spd_087.txt.gz
Wind_Speed
19 25 28 27 23 25 29 27 25 24 20 16 15 13 14 14 14 17 17 22 23 24 25 19 21 27 27 31 31 28 25 24
19 25 30 19 20 25 29 28 27 26 22 20 17 15 15 14 14 16 19 20 22 26 26 26 28 32 32 34 32 32 26 31
19 22 26 18 21 25 28 28 29 27 23 20 18 15 14 15 14 13 18 21 23 26 26 25 31 29 30 33 32 28 26 28
17 18 24 22 22 25 28 29 29 26 23 20 17 14 11 13 14 14 18 20 19 21 23 27 27 34 35 37 34 30 23 27
17 18 20 25 24 25 27 28 29 27 25 22 21 19 15 15 16 15 13 12 14 17 21 28 34 32 33 38 36 31 28 25
16 20 19 28 28 25 27 27 28 27 26 22 21 18 14 14 14 11 13 9 9 14 22 30 33 32 40 40 36 31 31 30
9 10 17 23 28 25 25 27 29 27 27 23 21 18 14 14 12 14 10 8 6 9 14 24 34 31 35 41 43 40 32 29
15 9 14 18 22 25 26 28 27 29 28 24 20 17 16 14 14 14 13 9 9 8 11 18 26 31 37 36 40 40 34 28
12 17 11 12 15 23 23 25 25 27 28 23 20 17 16 13 15 14 13 11 10 9 11 18 20 26 31 32 33 35 27 26
15 19 7 8 14 20 21 23 24 27 27 23 19 18 15 15 15 14 13 12 12 15 11 16 21 24 26 31 26 24 21 18
16 18 20 7 19 18 18 20 23 26 23 20 18 17 15 15 15 14 14 12 14 15 18 15 18 22 24 27 27 23 24 23
14 17 26 14 14 15 18 21 20 22 21 19 19 17 16 15 15 14 12 10 11 12 17 20 21 22 24 25 26 28 28 25
13 15 20 15 7 13 16 20 21 18 19 18 18 16 15 16 14 11 10 10 10 12 13 17 22 25 27 28 25 26 27 27
13 15 15 18 18 6 10 14 17 15 15 15 16 18 15 14 12 9 13 13 9 9 11 12 15 22 26 28 26 23 30 27
12 13 13 19 20 19 20 8 14 14 14 13 12 13 15 15 11 7 9 9 8 9 8 9 11 15 20 24 25 23 23 22
12 12 12 17 20 21 21 21 19 17 21 17 14 13 13 13 10 6 12 10 7 6 9 8 9 10 9 13 17 22 21 23
11 12 13 14 19 19 18 20 21 19 23 19 15 16 17 17 16 16 19 16 15 14 13 11 10 7 5 12 12 6 9 14
11 12 12 16 17 16 18 18 18 22 24 21 20 20 22 20 18 19 19 18 15 16 14 12 13 9 5 2 10 6 4 2
9 9 16 17 16 15 16 21 21 22 25 23 20 23 23 23 26 24 23 21 21 21 19 18 19 22 14 7 6 9 12 12

GFSFLT1_925_spd_090.txt.gz
Wind_Speed
15 24 30 32 33 26 36 35 32 30 24 22 21 20 15 18 17 18 16 18 18 19 19 19 21 22 20 23 28 28 26 26
17 21 26 32 34 32 38 34 32 30 25 23 20 19 19 19 20 19 18 20 22 21 20 20 21 23 23 26 29 29 23 24
14 19 18 22 22 25 35 33 32 29 25 23 20 19 19 19 19 19 23 19 21 22 21 24 22 21 23 29 30 24 22 23
11 13 15 20 19 18 28 31 29 28 26 22 19 20 18 19 19 19 22 22 24 23 23 23 23 25 30 34 34 31 24 30
11 14 10 17 20 22 24 30 28 28 28 23 24 21 17 19 18 18 20 21 19 20 21 26 26 31 30 33 36 33 27 23
9 9 7 17 27 27 29 30 30 30 31 25 25 20 18 20 19 18 18 17 15 15 19 24 28 32 31 34 33 33 32 27
16 14 11 18 20 30 32 30 30 30 29 25 25 20 20 20 19 18 16 14 14 13 17 22 26 32 35 35 36 37 34 30
14 15 16 22 15 29 31 31 29 28 28 24 24 22 19 21 18 18 18 14 12 10 12 17 21 29 35 35 37 37 41 34
13 14 17 21 23 26 26 28 25 29 25 23 23 19 17 16 20 18 17 13 12 11 10 10 15 24 31 34 34 34 40 37
12 15 16 26 18 23 25 22 18 26 24 24 23 20 19 15 18 18 17 14 13 11 8 9 10 18 24 28 27 35 38 36
12 12 15 23 13 16 15 19 14 20 20 21 21 17 16 15 19 16 17 15 14 13 10 10 13 15 20 23 24 26 32 33
12 12 18 21 20 8 11 14 17 22 22 19 21 16 17 16 18 17 16 14 15 12 13 13 13 17 19 22 23 26 27 27
12 12 18 20 22 26 8 11 14 18 10 18 17 13 15 16 16 14 14 14 14 13 14 16 13 16 18 21 22 20 19 18
13 13 13 17 21 24 27 5 13 10 15 14 16 12 17 15 15 14 13 14 12 13 14 13 15 17 20 21 20 21 19 20
13 12 12 18 21 24 27 26 8 12 15 14 11 16 16 15 12 11 13 14 13 13 11 11 11 14 16 19 20 17 19 22
14 13 12 16 21 23 27 27 23 18 19 19 18 15 15 16 13 16 19 16 13 13 14 16 14 14 13 15 18 20 20 21
13 14 14 15 20 20 24 26 24 22 19 19 20 20 20 19 17 20 20 19 18 18 17 15 13 10 7 12 12 13 15 14
13 13 14 16 18 21 23 23 25 25 21 18 21 20 21 19 19 22 23 23 22 22 20 18 18 15 11 11 14 14 15 13
11 11 16 16 20 24 23 26 27 26 25 21 20 24 24 22 21 24 24 24 26 25 24 22 22 20 16 15 15 17 18 16

GFSFLT1_925_spd_096.txt.gz
Wind_Speed
20 22 22 34 37 42 38 41 43 38 39 36 38 36 36 34 30 27 26 27 26 27 27 25 26 26 28 30 29 30 30 30
19 24 23 24 26 29 35 40 39 37 34 33 31 35 38 33 31 26 27 27 26 27 27 26 28 29 29 31 30 28 21 26
16 18 25 22 26 28 32 42 42 44 40 40 27 31 33 35 30 26 25 26 25 28 28 29 30 30 27 29 29 20 17 25
20 15 16 24 26 26 30 40 45 43 38 32 22 25 21 25 28 28 26 26 26 27 29 29 30 31 29 28 31 27 19 22
9 7 6 11 15 20 30 40 42 41 40 37 37 31 23 23 30 31 28 26 26 25 29 29 31 33 32 31 33 33 25 21
14 13 15 18 22 15 31 36 36 38 42 39 37 28 25 27 32 32 29 26 25 26 26 28 30 33 31 28 28 29 33 26
12 16 17 20 25 18 16 32 35 37 39 39 39 34 31 30 30 31 30 29 28 27 25 28 29 30 29 27 26 29 27 27
14 17 17 22 25 26 8 24 25 34 35 34 39 39 36 34 33 32 29 25 27 29 28 28 30 28 25 26 29 31 34 33
17 15 15 20 25 27 14 22 25 26 28 31 33 33 33 31 33 32 32 26 24 28 25 23 20 22 25 27 29 31 36 37
12 16 18 21 24 27 25 14 20 31 32 28 31 33 32 31 30 29 30 28 27 25 21 20 25 27 27 24 30 34 28 37
15 15 18 23 23 25 29 19 12 7 11 30 33 35 32 28 28 29 29 26 23 19 17 18 18 18 19 23 29 28 28 33
14 14 20 23 24 27 25 27 11 8 11 15 28 29 28 27 29 29 26 22 19 17 16 17 18 15 16 18 22 24 23 27
13 14 20 24 27 28 28 27 21 7 16 19 16 23 26 27 26 24 20 18 18 17 18 17 17 14 11 14 15 16 20 23
15 15 16 20 24 27 29 29 26 16 9 23 23 23 27 24 20 20 20 20 20 17 17 16 14 10 11 12 12 12 19 23
15 16 15 21 23 24 24 27 28 22 7 20 22 23 22 22 19 16 17 18 18 16 14 14 11 11 11 10 10 7 10 16
16 15 15 19 23 25 25 25 27 24 15 21 16 26 25 23 21 18 18 17 17 15 15 12 10 10 11 10 8 9 11 11
15 15 16 17 22 24 24 24 25 25 24 22 18 23 22 22 24 22 20 19 18 17 14 10 7 3 7 10 11 12 12 15
14 14 14 20 22 23 24 23 24 26 26 26 24 23 23 21 20 23 25 21 20 19 17 14 12 8 3 9 13 14 17 17
12 12 17 21 24 25 25 25 26 25 27 26 27 27 29 26 27 24 22 22 22 21 19 17 16 15 10 12 16 16 16 15

GFSFLT1_925_spd_099.txt.gz
Wind_Speed
22 31 33 32 27 27 34 42 44 47 42 37 35 35 37 35 34 35 35 35 33 32 31 29 25 26 26 29 28 27 24 26
22 31 35 33 27 20 28 35 39 35 32 31 27 29 33 36 38 37 35 35 34 33 32 30 27 28 28 28 28 27 23 26
12 19 29 31 32 28 27 35 37 40 35 37 27 32 31 33 36 36 35 34 33 32 31 30 29 28 27 27 28 18 16 25
11 13 18 19 18 18 23 31 39 42 38 30 22 25 20 24 31 37 38 34 32 31 30 30 30 28 27 28 29 26 18 23
12 13 15 21 23 25 17 31 38 39 36 33 34 35 24 27 32 32 35 32 32 30 27 30 30 28 27 27 30 30 25 20
12 15 20 21 25 28 26 24 37 37 38 37 38 30 29 29 26 27 31 31 31 28 28 30 29 29 27 28 28 26 31 22
11 15 23 23 27 30 29 12 29 34 37 36 36 34 29 26 27 33 33 34 30 30 28 30 30 29 28 26 26 25 24 25
16 18 16 23 27 30 29 22 22 30 32 31 32 31 33 34 31 30 29 32 32 32 30 30 28 27 27 27 25 26 26 28
16 15 16 23 27 30 31 29 12 26 27 28 28 31 32 30 32 31 32 32 29 31 30 28 25 24 28 24 23 25 26 30
18 18 20 24 26 28 28 28 8 22 23 23 28 29 31 30 32 32 34 32 28 29 30 28 24 21 21 18 19 22 24 28
17 16 21 26 26 27 26 24 23 6 17 24 20 22 27 28 30 31 33 31 26 26 25 23 21 18 18 18 21 23 24 29
15 15 20 23 25 24 24 24 24 19 6 16 16 9 18 24 27 29 29 27 25 22 22 20 19 19 17 14 17 21 26 27
13 14 20 23 26 27 26 26 24 21 12 10 18 15 15 22 25 26 24 26 23 19 17 15 13 12 11 12 14 18 21 24
13 14 15 21 25 27 28 26 27 28 18 2 10 11 21 30 26 25 24 22 20 17 15 12 10 10 10 9 12 14 15 18
14 15 15 20 23 25 26 27 28 30 26 8 11 17 17 20 26 25 20 20 19 16 12 9 7 9 7 7 9 8 11 13
16 15 14 19 23 26 26 27 27 28 29 25 18 16 23 23 22 23 22 21 20 18 16 13 10 9 7 7 5 6 5 5
15 15 15 18 24 25 26 26 27 28 30 29 25 19 19 25 23 23 23 22 21 19 16 13 9 4 4 7 6 7 6 6
15 15 14 21 24 23 24 25 26 29 31 28 32 30 22 23 20 22 21 20 18 18 15 13 11 7 4 7 8 9 9 9
13 15 19 22 24 24 23 25 31 28 31 30 29 26 31 25 30 28 24 22 21 19 17 16 14 13 8 11 14 14 14 12

GFSFLT1_925_spd_102.txt.gz
Wind_Speed
19 25 26 29 30 27 29 34 39 42 37 35 35 37 34 37 37 36 34 35 34 33 31 28 24 26 26 28 27 27 28 26
18 20 23 23 24 27 27 32 36 36 32 30 29 30 32 33 37 38 37 36 35 34 33 29 28 27 26 27 25 25 23 28
11 20 23 22 22 22 18 25 32 36 32 32 30 32 30 34 32 36 37 38 37 37 35 31 29 27 28 27 27 18 19 27
12 14 22 25 22 24 22 20 23 35 36 31 25 23 19 20 25 29 39 38 38 38 36 33 32 30 30 28 29 23 19 22
9 13 18 23 24 23 25 23 21 29 35 32 33 29 24 27 34 33 32 42 42 38 37 35 32 29 29 30 30 30 22 18
13 14 21 26 25 23 24 27 26 23 34 37 38 34 31 25 27 32 33 36 40 37 36 33 30 29 28 29 30 30 28 22
12 17 22 25 28 26 25 26 29 20 31 36 36 37 30 25 26 28 30 33 38 37 35 32 30 29 28 29 29 30 29 24
14 17 17 26 31 30 25 26 30 25 26 34 34 30 29 32 31 30 28 30 31 38 35 32 30 29 28 28 28 28 29 27
14 15 19 25 28 29 30 32 31 31 21 29 29 28 28 28 28 25 26 29 33 38 35 32 28 27 27 27 26 28 27 27
14 15 20 26 28 30 28 30 31 31 19 23 26 27 28 29 31 33 33 32 32 34 34 29 26 26 23 24 27 26 25 26
16 15 21 25 26 29 31 30 32 30 17 19 23 23 25 26 29 30 30 30 31 31 29 27 25 24 22 23 22 22 21 24
15 16 24 26 27 27 28 27 26 26 21 5 18 21 22 22 24 25 27 27 28 29 28 27 25 23 22 19 17 17 18 22
14 15 22 25 27 28 28 29 30 30 27 15 12 18 16 18 22 23 24 23 25 22 22 22 22 19 15 14 15 15 15 21
14 15 15 22 26 27 28 30 29 28 28 15 2 13 16 14 18 18 19 24 25 22 22 21 19 16 15 12 11 11 15 22
14 14 15 22 25 27 28 28 27 24 24 24 24 18 8 19 19 22 24 26 25 21 20 17 15 13 11 9 9 10 13 13
15 15 15 21 24 27 28 28 28 25 25 28 27 22 16 14 16 26 25 26 23 21 21 19 17 13 11 10 9 6 7 4
15 15 15 19 24 26 27 29 29 26 25 25 29 30 29 22 17 24 24 24 23 22 19 15 12 8 9 11 9 10 7 5
14 14 15 22 25 24 25 26 27 26 27 27 30 31 34 35 27 24 24 24 22 21 17 14 10 6 6 11 14 12 10 9
12 14 19 23 25 27 25 28 26 29 31 33 33 25 31 34 36 28 29 29 27 24 21 17 15 14 10 14 16 17 16 14